Temperature
3 3 4 4 4 5 5 5 5 5 5 5 6 6 6 6 7 7 7 7 7 7 7 7 7 7 7 7 7 6 6 6 6 7 6 6 6 6 6 6 6 7 6
2 2 3 3 4 4 4 4 5 5 5 5 5 5 6 6 6 6 6 6 6 6 6 6 6 6 7 6 6 6 6 6 6 6 6 6 6 6 6 6 6 6 6
2 2 2 3 3 3 4 4 4 4 5 5 5 5 5 5 5 5 6 6 6 6 6 6 6 6 6 6 6 6 6 6 6 6 6 6 6 6 5 5 5 6 6
2 2 2 2 3 3 3 4 4 4 4 4 4 4 5 5 5 5 5 5 5 6 6 6 6 6 6 6 6 6 5 5 5 5 5 5 5 5 5 5 5 5 5
1 1 2 2 2 2 3 3 3 4 4 4 4 4 4 4 4 5 5 5 5 5 5 5 5 5 5 5 5 5 5 5 5 5 5 5 5 5 5 4 4 4 4
1 1 1 1 2 2 2 2 3 3 3 3 3 3 3 4 4 4 4 4 4 4 4 4 5 5 5 5 5 4 4 4 4 4 4 4 4 4 4 4 4 3 3
0 0 1 1 1 1 2 2 2 2 2 3 3 3 3 3 3 4 4 4 4 4 4 4 4 4 4 4 4 4 4 4 4 4 4 4 4 4 4 3 3 3 3
-1 0 0 0 1 1 1 1 1 1 2 2 2 2 2 3 3 3 3 3 3 3 3 3 3 3 3 3 3 3 3 3 3 3 3 3 3 3 3 3 3 3 3
-1 -0 -0 0 0 0 1 0 1 1 1 1 1 1 2 2 2 2 2 2 2 3 3 3 3 3 3 3 2 2 3 3 3 3 3 3 3 3 2 2 2 2 2
-1 -1 -1 -0 -0 0 0 0 0 0 0 0 1 1 1 1 1 2 2 1 2 2 2 2 2 2 2 2 2 2 2 2 2 2 2 2 2 2 2 2 2 1 1
-2 -1 -1 -1 -1 -0 -0 -0 -0 -0 -0 -0 -0 -0 0 0 1 1 1 1 1 1 1 1 1 1 1 1 1 1 1 1 1 1 2 2 2 2 1 1 1 1 0
-2 -2 -1 -1 -1 -1 -1 -1 -1 -1 -1 -1 -1 -1 -1 -0 -0 0 0 0 0 0 1 1 1 1 1 1 1 1 1 1 1 1 1 1 1 1 1 1 1 0 0
-2 -2 -2 -1 -1 -1 -1 -1 -1 -1 -1 -1 -1 -1 -1 -1 -1 -1 -1 -0 -0 -0 -0 -0 0 0 0 0 0 0 0 0 0 0 0 1 0 0 0 0 -0 -0 -0
-3 -2 -2 -2 -2 -2 -2 -2 -2 -2 -2 -2 -2 -2 -1 -1 -1 -1 -1 -1 -1 -1 -1 -1 -1 -1 -1 -1 -0 -0 -0 -0 -0 -0 -0 -0 -0 -0 -1 -1 -1 -1 -1
-3 -3 -3 -2 -2 -2 -2 -2 -2 -2 -2 -2 -2 -2 -2 -2 -2 -2 -1 -1 -1 -1 -1 -1 -1 -1 -1 -1 -1 -1 -1 -1 -1 -1 -1 -1 -1 -1 -1 -1 -2 -2 -2
-4 -3 -3 -3 -3 -3 -2 -2 -2 -2 -2 -2 -2 -2 -2 -2 -2 -2 -2 -2 -2 -2 -2 -2 -2 -2 -2 -2 -2 -2 -2 -2 -2 -2 -2 -2 -2 -2 -2 -2 -2 -3 -3
-4 -4 -4 -4 -3 -3 -3 -3 -3 -3 -3 -3 -3 -3 -3 -3 -3 -3 -3 -3 -2 -2 -2 -2 -2 -2 -2 -2 -2 -2 -2 -2 -2 -2 -2 -2 -2 -2 -3 -3 -3 -3 -3
-5 -5 -4 -4 -4 -4 -4 -4 -4 -3 -3 -3 -3 -3 -3 -3 -3 -3 -3 -3 -3 -3 -3 -3 -3 -3 -3 -3 -3 -3 -3 -3 -3 -3 -3 -3 -3 -3 -3 -4 -4 -4 -4
-6 -5 -5 -5 -5 -5 -5 -4 -4 -4 -4 -4 -4 -4 -4 -4 -4 -4 -4 -4 -4 -4 -4 -4 -4 -4 -4 -3 -3 -3 -3 -3 -3 -3 -3 -3 -4 -4 -4 -4 -4 -5 -5
-6 -6 -6 -6 -5 -5 -5 -5 -5 -5 -5 -5 -5 -5 -4 -4 -4 -5 -5 -5 -4 -4 -4 -4 -4 -4 -4 -4 -4 -4 -4 -4 -4 -4 -4 -4 -4 -4 -5 -5 -5 -5 -5
-7 -6 -6 -6 -6 -6 -6 -6 -6 -6 -5 -5 -5 -5 -5 -5 -5 -5 -5 -5 -5 -5 -5 -5 -5 -5 -5 -5 -5 -5 -5 -5 -5 -5 -5 -5 -5 -5 -5 -6 -6 -6 -6
-7 -7 -7 -7 -7 -7 -7 -7 -6 -6 -6 -6 -6 -6 -6 -6 -6 -6 -6 -6 -6 -6 -6 -6 -6 -6 -5 -5 -5 -5 -5 -5 -5 -5 -5 -5 -6 -6 -6 -6 -6 -6 -6
-8 -8 -7 -7 -7 -7 -7 -7 -7 -7 -7 -7 -7 -7 -7 -7 -7 -7 -7 -7 -7 -6 -6 -7 -6 -6 -6 -6 -6 -6 -6 -6 -6 -6 -6 -6 -6 -6 -6 -6 -6 -6 -7
-8 -8 -8 -8 -8 -8 -8 -8 -8 -8 -8 -7 -7 -7 -7 -7 -7 -7 -7 -7 -7 -7 -7 -7 -7 -7 -7 -7 -7 -7 -7 -7 -6 -6 -6 -6 -6 -6 -7 -7 -7 -7 -7
-9 -8 -8 -8 -8 -8 -8 -8 -8 -8 -8 -8 -8 -8 -8 -8 -8 -8 -8 -8 -8 -8 -8 -8 -8 -8 -8 -7 -7 -7 -7 -7 -7 -7 -7 -7 -7 -7 -7 -7 -7 -7 -8
-9 -9 -9 -9 -9 -9 -9 -9 -9 -9 -9 -8 -8 -8 -8 -8 -8 -8 -8 -8 -8 -8 -8 -8 -8 -8 -8 -8 -8 -8 -8 -7 -7 -7 -7 -7 -7 -7 -7 -8 -8 -8 -8
Wind_Speed
3 3 2 3 4 4 4 5 5 4 5 5 5 5 5 4 4 4 4 4 6 6 5 6 7 5 5 4 4 3 3 3 3 2 2 1 2 2 2 3 4 4 5
3 2 3 3 3 4 4 4 4 4 4 5 5 5 5 5 4 5 5 5 7 7 7 7 7 6 6 5 4 4 4 3 3 3 2 2 2 2 2 1 2 3 4
3 2 3 2 3 4 5 4 4 4 4 4 4 5 5 5 5 5 5 5 6 7 7 8 7 7 7 5 5 5 4 3 3 3 2 2 1 1 1 1 1 2 3
3 3 3 3 3 4 4 4 4 5 5 5 5 5 4 4 5 5 5 5 5 5 7 7 7 8 8 7 6 6 5 4 3 3 2 2 1 1 1 1 2 1 2
3 3 4 3 3 3 3 4 4 4 5 5 4 4 4 4 5 5 5 5 5 5 5 6 6 7 7 7 6 6 6 5 4 4 3 2 2 2 3 2 2 2 2
4 4 4 3 2 2 3 3 3 3 3 3 4 4 4 4 5 6 6 6 5 5 5 4 4 6 6 6 7 7 7 7 6 5 4 4 4 4 3 3 2 1 3
4 4 3 2 2 2 2 2 2 2 2 3 3 4 4 5 6 6 7 6 5 5 5 4 3 3 4 4 5 6 6 7 7 6 6 6 5 5 5 4 4 4 4
5 4 4 2 2 1 1 1 1 2 2 2 2 2 2 3 5 6 6 5 5 5 5 5 5 4 4 4 4 3 4 4 5 5 6 6 5 5 6 5 4 2 1
4 4 4 3 2 1 2 2 1 2 1 1 1 2 2 3 4 5 5 5 4 4 4 5 5 5 5 5 4 4 3 2 3 5 5 5 5 6 6 3 3 2 3
5 5 4 3 2 2 2 2 1 1 2 2 1 1 2 2 3 5 6 4 4 4 3 4 5 5 6 6 5 5 5 4 3 2 1 2 2 4 5 5 5 4 3
6 5 4 2 2 2 1 1 1 1 1 1 1 1 2 2 3 5 5 4 5 4 4 3 3 5 5 6 5 5 6 4 3 3 2 2 1 1 2 2 3 3 4
6 5 4 2 1 1 1 1 1 2 1 1 1 1 1 2 2 4 6 5 4 4 4 3 3 5 5 5 4 4 5 3 3 2 2 2 2 2 1 1 2 2 3
5 5 4 3 2 1 1 2 1 1 1 1 1 2 1 1 2 3 5 5 4 3 3 4 4 4 3 3 4 5 4 3 3 3 3 3 2 2 1 1 1 1 1
5 5 4 3 2 2 1 1 1 2 2 2 2 2 2 1 1 2 3 3 4 3 2 3 3 3 2 3 3 3 3 3 3 4 3 2 2 2 2 2 1 1 1
5 4 4 3 2 2 1 1 1 1 2 3 3 3 3 3 3 3 3 3 4 4 3 2 1 2 2 2 2 2 3 3 3 3 3 3 3 3 2 2 2 2 2
4 4 3 3 2 2 1 2 3 1 2 2 2 2 2 3 2 2 2 2 3 4 3 2 3 3 3 4 3 3 3 3 3 3 3 4 4 3 3 2 2 3 3
4 4 3 2 2 1 1 1 1 3 4 3 2 2 1 1 1 1 1 1 2 3 2 3 3 3 3 3 3 3 3 3 3 3 4 4 4 4 3 3 3 3 3
4 4 4 2 2 1 1 1 1 1 2 3 3 3 2 2 1 1 1 1 1 1 1 2 2 2 2 2 2 3 3 3 3 3 3 4 4 4 4 4 4 4 4
3 3 3 2 2 2 1 1 1 1 1 2 3 3 3 3 3 2 1 1 1 1 1 1 1 1 1 1 2 2 3 3 3 3 3 4 4 4 4 4 4 5 4
3 4 4 3 2 2 2 1 1 1 1 1 2 2 2 2 2 2 2 1 0 0 0 0 0 0 1 1 1 2 2 3 3 3 3 4 4 4 4 5 5 4 5
2 3 4 3 2 2 1 1 1 1 1 1 1 2 2 1 1 1 1 1 1 1 1 0 1 0 0 0 1 1 2 3 3 3 3 4 4 4 4 4 4 5 4
2 2 2 2 2 2 1 1 1 1 1 1 2 2 3 2 2 1 1 1 1 1 1 1 1 1 1 1 1 1 1 2 3 3 4 4 4 4 4 4 4 4 4
1 2 2 2 2 2 2 1 1 1 1 1 2 2 2 2 2 2 2 2 1 1 1 1 1 1 1 1 2 2 2 3 3 4 4 4 4 4 4 4 5 4 4
1 1 1 1 1 1 2 2 1 1 1 1 1 1 1 1 1 2 2 2 2 2 1 1 1 1 2 2 2 3 3 4 4 4 5 5 5 4 4 4 4 5 4
1 1 1 1 1 1 1 1 1 1 1 1 1 2 2 2 2 2 2 2 2 2 2 2 2 2 2 3 3 4 4 4 4 4 4 4 4 5 5 5 4 4 4
1 1 1 1 1 1 1 2 2 2 2 2 1 1 1 1 1 2 2 1 2 2 2 3 3 3 4 4 4 5 5 5 5 4 3 3 3 4 4 4 5 4 4
Wind_Direction
266 257 257 222 207 196 201 207 207 213 203 204 204 198 196 194 192 197 199 198 203 196 192 195 200 191 188 188 185 185 187 186 216 236 218 224 212 233 265 250 250 249 252
279 277 260 229 206 204 209 215 210 209 207 206 202 196 198 197 193 199 201 210 203 197 198 197 202 195 194 191 192 198 197 193 195 225 229 213 217 222 225 249 274 263 257
305 297 278 251 214 213 215 215 210 204 205 209 199 196 200 201 199 197 202 216 203 201 202 203 202 195 199 200 198 201 201 196 189 202 224 220 212 205 204 306 307 284 280
319 311 286 272 242 221 213 208 206 202 199 206 205 198 199 199 203 199 202 209 199 201 206 207 205 202 203 201 202 203 198 194 193 198 212 215 209 190 184 236 286 277 284
315 294 280 268 257 227 212 207 206 208 210 207 197 193 194 198 202 197 201 200 196 199 203 208 208 204 205 204 204 201 196 199 199 211 217 215 216 200 216 219 250 280 279
310 292 289 280 263 234 215 205 201 205 197 190 197 192 192 203 207 203 198 196 195 195 202 208 209 204 206 206 209 206 201 202 204 213 221 225 229 223 215 216 222 254 264
314 310 304 294 276 256 230 191 183 190 187 187 188 183 194 208 205 205 202 193 191 194 198 201 209 214 205 206 213 214 216 218 212 213 217 224 221 215 206 215 223 232 247
316 318 311 304 296 274 225 201 190 176 187 190 185 188 195 217 209 206 200 192 190 195 199 199 199 205 209 200 196 207 220 225 226 220 217 224 222 211 205 214 218 229 293
310 309 309 303 291 258 232 225 217 189 196 206 209 193 193 220 217 207 195 189 193 196 201 201 201 204 207 200 190 195 217 240 238 223 229 235 233 218 200 180 187 214 255
309 303 298 285 270 254 242 231 224 206 200 193 201 211 208 222 229 210 195 187 188 192 196 203 207 208 206 201 198 195 212 232 214 218 222 236 233 216 204 202 202 217 243
310 307 304 288 262 248 241 223 223 215 187 184 203 223 221 232 232 211 202 195 189 189 196 201 206 204 208 210 210 206 215 213 202 196 195 194 194 201 213 215 208 215 224
319 314 312 306 288 251 205 216 204 181 184 210 207 230 233 240 234 218 210 209 197 189 198 197 201 199 207 210 213 204 199 191 188 195 200 206 209 220 233 217 201 211 223
325 322 322 319 306 281 215 197 190 176 181 215 214 228 256 254 234 219 210 208 201 194 190 190 193 192 191 195 197 198 194 186 186 200 213 223 217 206 201 180 102 90 23
322 323 326 330 327 319 288 219 192 184 195 215 226 234 245 247 241 223 200 197 191 184 169 169 175 177 191 201 198 198 197 195 197 205 215 212 193 190 200 202 217 226 263
321 324 328 328 327 330 326 269 218 217 226 226 226 221 225 239 247 242 217 201 195 186 163 149 163 182 198 201 193 194 193 190 196 194 195 203 208 210 218 214 217 230 240
322 325 325 327 324 321 331 355 1 348 325 290 283 261 257 264 269 254 248 227 204 180 164 179 198 202 204 203 201 205 206 199 199 201 201 205 208 211 213 212 212 216 231
321 322 325 327 328 329 325 329 352 10 10 350 329 325 305 299 289 234 221 204 186 170 177 192 203 206 207 200 202 208 218 212 200 201 207 207 207 207 209 214 214 221 233
331 328 331 331 331 330 327 329 352 19 7 3 356 347 338 339 356 24 137 121 161 181 190 203 212 207 202 203 208 212 212 204 201 204 209 207 205 206 211 218 219 222 234
335 337 337 340 340 337 346 2 22 25 12 3 12 9 6 17 28 31 71 102 160 205 214 212 212 204 209 218 220 217 212 210 206 203 207 212 210 208 215 222 225 226 235
335 333 340 346 349 352 0 8 14 16 14 11 356 349 9 39 49 38 48 59 62 291 293 274 273 222 223 240 236 216 210 211 207 211 214 215 215 213 217 221 224 228 235
333 336 339 346 351 351 4 2 359 4 358 356 345 338 356 36 31 29 21 359 340 329 340 334 315 298 273 262 255 227 214 217 214 213 215 217 214 214 219 223 227 228 231
338 344 353 347 344 350 355 355 358 359 351 346 348 344 342 11 23 6 356 347 347 340 325 322 313 295 271 256 249 246 242 244 235 222 219 219 218 219 219 222 225 231 231
343 345 347 345 346 339 345 359 8 6 353 349 347 349 351 1 3 357 349 347 343 335 332 312 294 302 307 282 250 234 244 249 245 233 229 224 221 221 220 221 223 230 238
338 330 332 341 346 346 341 340 343 342 338 340 346 342 337 338 339 341 348 343 333 335 332 317 299 298 302 301 294 271 255 252 244 235 228 224 224 226 225 228 230 232 235
330 318 319 325 326 324 324 324 328 330 330 330 332 332 335 337 335 337 342 336 333 332 334 325 310 303 298 295 293 288 281 278 271 256 236 221 221 223 225 226 230 234 237
336 324 310 309 304 301 302 305 309 311 308 309 309 308 313 316 315 316 319 318 322 322 326 323 316 309 303 299 296 298 300 297 292 282 250 223 225 230 224 226 225 227 228
Height
1464 1466 1467 1469 1471 1473 1475 1478 1480 1482 1484 1487 1489 1492 1494 1497 1500 1503 1505 1508 1511 1514 1517 1520 1523 1525 1527 1530 1532 1534 1535 1537 1537 1537 1539 1540 1541 1542 1543 1544 1544 1544 1544
1462 1463 1464 1465 1467 1469 1471 1473 1476 1478 1480 1483 1485 1487 1490 1493 1495 1498 1500 1503 1506 1508 1512 1515 1518 1520 1523 1525 1527 1529 1531 1532 1533 1533 1534 1536 1536 1537 1538 1539 1540 1540 1540
1459 1460 1460 1461 1463 1465 1467 1469 1471 1474 1476 1478 1480 1483 1485 1488 1490 1493 1496 1498 1501 1503 1507 1509 1512 1515 1517 1520 1522 1524 1526 1527 1528 1529 1529 1531 1532 1533 1533 1534 1535 1535 1535
1457 1457 1458 1458 1460 1461 1463 1465 1467 1469 1471 1473 1476 1478 1480 1483 1485 1488 1491 1493 1496 1498 1502 1504 1507 1509 1512 1514 1517 1519 1521 1522 1523 1524 1525 1526 1527 1528 1528 1528 1529 1530 1530
1455 1455 1455 1456 1456 1457 1459 1460 1462 1465 1466 1469 1471 1473 1475 1478 1480 1483 1486 1488 1491 1493 1496 1498 1501 1503 1506 1508 1511 1513 1515 1516 1518 1519 1519 1520 1521 1522 1523 1523 1523 1524 1524
1452 1452 1452 1452 1452 1453 1454 1456 1458 1460 1461 1464 1466 1468 1470 1472 1475 1478 1481 1483 1485 1488 1490 1492 1495 1498 1500 1502 1505 1507 1510 1511 1512 1513 1513 1514 1515 1517 1518 1518 1518 1518 1518
1449 1448 1449 1449 1449 1449 1450 1451 1453 1455 1457 1458 1461 1462 1464 1467 1470 1473 1475 1478 1480 1482 1485 1487 1489 1492 1494 1496 1499 1501 1503 1505 1507 1508 1508 1509 1510 1511 1512 1513 1513 1513 1513
1446 1446 1446 1446 1446 1447 1448 1448 1449 1451 1452 1454 1455 1457 1459 1462 1465 1467 1470 1473 1475 1477 1480 1482 1484 1486 1488 1490 1493 1495 1497 1499 1501 1502 1503 1504 1506 1506 1507 1508 1508 1508 1508
1444 1444 1444 1444 1444 1444 1445 1445 1447 1448 1449 1451 1452 1453 1455 1457 1460 1462 1464 1467 1469 1472 1475 1477 1479 1481 1483 1486 1487 1489 1491 1493 1495 1496 1498 1498 1500 1501 1502 1503 1503 1503 1502
1442 1442 1442 1442 1442 1442 1443 1444 1445 1446 1447 1448 1449 1450 1452 1453 1455 1457 1460 1462 1465 1467 1470 1472 1474 1476 1478 1480 1482 1484 1485 1487 1489 1490 1492 1493 1494 1495 1496 1497 1497 1497 1497
1440 1440 1440 1440 1440 1440 1440 1442 1443 1443 1444 1445 1446 1448 1449 1450 1451 1453 1456 1458 1460 1462 1464 1466 1468 1471 1473 1475 1477 1479 1480 1482 1484 1485 1486 1487 1488 1489 1490 1491 1492 1492 1492
1439 1438 1438 1438 1438 1438 1438 1439 1440 1440 1441 1442 1443 1444 1445 1447 1448 1450 1452 1454 1456 1458 1459 1462 1464 1466 1468 1470 1472 1474 1475 1477 1478 1479 1480 1481 1482 1483 1484 1485 1486 1487 1487
1437 1437 1436 1436 1436 1436 1436 1437 1438 1438 1439 1440 1441 1441 1442 1443 1445 1446 1448 1450 1452 1454 1455 1457 1459 1461 1463 1465 1467 1468 1470 1471 1472 1473 1474 1475 1477 1478 1479 1480 1480 1481 1481
1436 1435 1435 1434 1434 1434 1434 1435 1436 1436 1437 1437 1438 1438 1439 1440 1441 1442 1444 1446 1448 1449 1451 1453 1455 1457 1458 1460 1461 1463 1464 1466 1467 1468 1469 1470 1472 1473 1474 1474 1475 1475 1475
1435 1434 1433 1433 1432 1432 1432 1433 1433 1434 1435 1435 1435 1436 1436 1437 1438 1439 1440 1441 1443 1445 1446 1448 1450 1452 1453 1455 1456 1457 1459 1460 1462 1463 1464 1465 1466 1467 1468 1469 1470 1470 1470
1434 1433 1432 1432 1432 1432 1431 1432 1432 1433 1433 1433 1434 1434 1434 1435 1436 1436 1437 1438 1440 1441 1443 1444 1445 1447 1448 1450 1451 1452 1454 1455 1456 1458 1459 1460 1461 1462 1462 1463 1464 1465 1465
1432 1432 1431 1431 1430 1430 1430 1430 1430 1431 1431 1431 1431 1431 1432 1433 1433 1433 1434 1435 1436 1438 1439 1440 1441 1442 1444 1445 1446 1448 1449 1450 1451 1453 1454 1455 1456 1456 1457 1458 1458 1459 1460
1431 1430 1430 1429 1429 1429 1429 1429 1429 1428 1428 1428 1429 1430 1430 1430 1431 1431 1432 1432 1433 1434 1435 1437 1438 1439 1440 1440 1441 1443 1444 1445 1446 1447 1448 1449 1450 1451 1452 1452 1453 1454 1454
1429 1429 1428 1428 1427 1427 1427 1427 1427 1427 1427 1427 1427 1428 1428 1428 1429 1429 1429 1430 1430 1431 1432 1433 1434 1435 1436 1436 1437 1438 1438 1439 1441 1442 1443 1444 1445 1446 1446 1447 1448 1448 1449
1428 1428 1427 1426 1426 1426 1426 1425 1425 1426 1426 1426 1426 1426 1426 1426 1426 1426 1427 1427 1428 1428 1429 1430 1431 1431 1432 1432 1432 1433 1433 1434 1436 1437 1438 1439 1439 1440 1441 1442 1443 1443 1443
1427 1426 1426 1425 1425 1425 1424 1424 1425 1425 1425 1425 1425 1426 1426 1425 1425 1425 1425 1426 1426 1426 1427 1427 1427 1428 1428 1429 1429 1429 1429 1430 1431 1432 1433 1434 1434 1435 1436 1437 1437 1438 1438
1426 1425 1424 1424 1424 1424 1424 1424 1424 1424 1424 1424 1424 1424 1424 1424 1423 1423 1424 1424 1424 1424 1425 1425 1425 1425 1426 1426 1426 1426 1426 1427 1427 1428 1429 1429 1430 1430 1431 1432 1433 1433 1433
1425 1424 1424 1424 1423 1423 1423 1423 1423 1423 1423 1423 1422 1422 1423 1422 1422 1422 1422 1422 1422 1423 1423 1423 1423 1423 1423 1423 1424 1424 1423 1423 1424 1424 1424 1424 1425 1426 1426 1427 1427 1428 1428
1424 1423 1423 1423 1423 1422 1422 1422 1422 1422 1422 1421 1421 1421 1421 1421 1421 1421 1421 1420 1421 1421 1421 1421 1421 1421 1421 1421 1421 1421 1420 1420 1420 1420 1420 1420 1420 1421 1422 1422 1422 1422 1423
1423 1422 1422 1422 1421 1421 1421 1421 1421 1420 1420 1420 1420 1420 1420 1420 1419 1419 1419 1419 1419 1419 1419 1419 1418 1418 1418 1418 1418 1417 1417 1416 1416 1416 1415 1415 1415 1416 1416 1417 1417 1417 1417
1421 1421 1420 1420 1420 1420 1419 1419 1419 1419 1419 1418 1418 1418 1418 1418 1418 1418 1417 1417 1417 1416 1416 1416 1416 1416 1415 1415 1415 1414 1413 1413 1412 1412 1411 1411 1411 1411 1411 1412 1412 1412 1412